Tracking 35274 objects as of 10-Sep-2026
HD Live streaming from Space Station
objects crossing your sky now

COSMOS 886 DEB

Track COSMOS 886 DEB now!
10-day predictions


NORAD ID: 9823
Int'l Code: 1976-126AK
Launch date: December 27, 1976
Source: Commonwealth of Independent States (former USSR) (CIS)
Launch site: TYURATAM MISSILE AND SPACE COMPLEX (TTMTR)

Note: This is SATELLITE DEBRIS
Your satellite tracking list
Your tracking list is empty




NASA's NSSDC Master Catalog

Two Line Element Set (TLE):
1 09823U 76126AK  26252.18030718  .00000414  00000-0  21289-3 0  9993
2 09823  65.7992 322.0302 0910014 343.2249  14.0406 13.00544318325998
Source of the keplerian elements: AFSPC